Location: Newark
(49.1939°N, 0.8136°E)
Time: 06:04:30
(UTC+00:00)

Envisat - Pass Details

Date: 29 November 2019
Orbit: 764 x 766 km, 98.1° (Epoch: 09 December)

Event Time Altitude Azimuth Distance (km) Brightness Sun altitude
Rises 19:26:10 0° 219° (SW) 3,222 6.7 -32.5°
Reaches altitude 10° 19:29:47 10° 246° (WSW) 2,303 6.1 -33.1°
Maximum altitude 19:32:10 13° 274° (W) 2,088 6.0 -33.5°
Drops below altitude 10° 19:34:32 10° 302° (WNW) 2,310 6.1 -33.9°
Sets 19:38:12 0° 330° (NNW) 3,243 6.7 -34.5°
